Location: Bourg-d�Oueil
(42.8588°N, 0.4991°E)
Time: 02:57:10
(UTC+00:00)

Cosmos 1461 - Pass Details

Date: 16 June 2021
Orbit: 513 x 649 km, 65.0° (Epoch: 04 August)

Event Time Altitude Azimuth Distance (km) Brightness Sun altitude
Rises 21:22:47 0° 330° (NNW) 2,815 8.3 -14.6°
Reaches altitude 10° 21:25:08 10° 335° (NNW) 1,887 6.9 -14.9°
Maximum altitude 21:29:16 53° 52° (NE) 691 3.3 -15.3°
Enters shadow 21:31:16 26° 118° (ESE) 1,086 3.8 -15.6°
